Location: Hilton Head Island
(32.2163°N, 80.7526°W)
Time: 15:15:43
(UTC-04:00)

Vanguard 1 - Pass Details

Date: 23 February 2026
Orbit: 653 x 3818 km, 34.2° (Epoch: 9 March)

Event Time Altitude Azimuth Distance (km) Brightness Sun altitude
Rises 18:34:27 0° 285° (WNW) 5,335 15.3 -4.7°
Reaches altitude 10° 18:37:18 10° 284° (WNW) 4,662 14.8 -5.3°
Maximum altitude 18:51:50 79° 201° (SSW) 3,170 12.7 -8.3°
Drops below altitude 10° 19:14:59 10° 119° (ESE) 6,916 13.9 -13.2°
Enters shadow 19:18:29 - 118° (ESE) 7,565 14.1 -13.9°
Sets 19:20:23 0° 118° (ESE) 7,911 - -14.4°
